Weather in Dadonghai

China     18°13′27″N   109°31′16″E
temp.,
°C
wind,
m/s
gust,
m/s
humid.,
%
clouds,
%
prec.,
mm/h
press.,
hPa
HPBL,
m
16 june, wed
wed1623:00+27e12840 0.1 1005101
02:00+27ssw13864 1.1 1005121
05:00+27wsw118316 0.6 100542
08:00+29nne11715 0.8 1006171
11:00+31sw466149 0.0 10071158
14:00+32wsw68617 0.1 10051103
17:00+30wsw46675 0.0 1004762
20:00+28sw118212 0.0 100627
17 june, thu
thu1723:00+27nne118516 0.2 100711
02:00+27s118541 0.9 100747
05:00+27nnw11875 0.3 100720
08:00+29w127519 0.4 1008212
11:00+31sw46645 0.0 10081074
14:00+32w58605 0.0 10061043
17:00+31w46645 0.0 1005756
20:00+28ssw11800 0.0 100715
18 june, fri
fri1823:00+27ene01855 0.3 100917
02:00+27w118677 0.6 100735
05:00+27nw12885 0.0 1007148
08:00+29sw137740 0.1 1008400
11:00+31wsw46655 0.0 10081055
14:00+32wsw576189 0.0 10061022
17:00+31w486180 0.0 1005837
20:00+28sw118259 0.0 100626
19 june, sat
sat1923:00+27e018594 0.0 100815
02:00+27sw128688 0.7 100661
05:00+27sw13905 0.1 1005113
08:00+29sw36795 0.3 1007511
11:00+32wsw596224 0.0 10061145
14:00+32wsw610615 0.0 10041148
17:00+31wsw410635 0.0 1003979
20:00+28ssw118313 0.0 100413
20 june, sun
sun2023:00+27ese018738 0.0 100516
02:00+28ssw35885 0.4 1003165
05:00+28ssw348771 0.4 100398
08:00+29wsw497941 0.7 1004481
11:00+32wsw61063100 0.1 10031043
14:00+32wsw696133 0.1 10021076
17:00+32w5106195 0.0 1000823
20:00+28sw227797 0.0 100120